Location: Brunembert
(50.7122°N, 1.8935°E)
Time: 10:45:35
(UTC+00:00)

IRIDIUM 104 - Pass Details

Date: 22 April 2021
Orbit: 776 x 779 km, 86.4° (Epoch: 16 May)

Event Time Altitude Azimuth Distance (km) Brightness Sun altitude
Rises 20:04:19 0° 176° (S) 3,250 7.2 -9.9°
Reaches altitude 10° 20:06:39 10° 174° (S) 2,326 6.4 -10.2°
Maximum altitude 20:11:50 73° 91° (E) 820 4.3 -10.9°
Drops below altitude 10° 20:17:04 10° 8° (N) 2,342 7.2 -11.6°
Sets 20:19:25 0° 6° (N) 3,274 8.0 -11.9°
